Location: Aldenham
(51.6667°N, 0.3500°W)
Time: 19:01:18
(UTC+00:00)

A-11 Canister half - Pass Details

Date: 18 February 2026
Orbit: 1512 x 1687 km, 47.2° (Epoch: 8 March)

Event Time Altitude Azimuth Distance (km) Brightness Sun altitude
Rises 18:25:20 0° 173° (S) 4,928 11.6 -10.5°
Reaches altitude 10° 18:30:50 10° 150° (SSE) 3,943 10.9 -11.3°
Maximum altitude 18:35:05 13° 124° (SE) 3,660 10.5 -12.0°
Enters shadow 18:37:44 12° 108° (ESE) 3,765 10.5 -12.4°
Drops below altitude 10° 18:39:19 10° 99° (E) 3,927 - -12.7°
Sets 18:44:42 0° 75° (ENE) 4,892 - -13.5°
